Temperature
23 23 22 22 21 21 21 21 20 20 20 20 20 20 20 20 19 19 19 19 19 19 19 18 18 18 18 19 19 19 19 19 19 19 19 18 18 18 18 17 17 18 18
23 23 22 22 21 21 21 20 20 20 20 20 20 20 19 19 19 19 19 19 19 19 19 18 18 18 19 19 19 19 19 19 19 18 18 18 18 18 17 17 17 18 18
23 23 22 22 21 21 21 20 20 20 20 20 19 19 19 19 19 19 19 19 19 19 19 18 18 19 19 19 19 19 19 19 18 18 18 18 18 18 18 17 17 18 17
23 23 22 22 21 21 21 20 20 20 20 19 19 19 19 19 19 19 19 19 19 19 19 19 19 19 19 19 19 19 19 18 18 18 17 17 18 18 18 17 17 18 17
22 22 22 22 21 21 20 20 20 20 20 19 19 19 19 19 19 19 19 19 19 19 19 19 19 19 19 19 19 19 19 18 18 18 17 18 18 18 18 18 18 17 17
21 22 22 22 21 21 20 20 20 20 19 19 19 19 19 19 19 19 19 19 19 19 19 19 19 19 19 19 19 19 19 18 18 18 18 18 18 18 18 18 18 17 17
21 22 22 22 21 21 20 20 20 20 20 19 19 19 19 19 19 19 19 19 19 19 19 19 19 19 19 19 19 19 19 18 18 18 18 18 18 18 18 18 18 17 17
22 22 22 22 21 21 21 20 20 20 20 20 20 19 19 19 19 19 19 19 19 19 19 19 19 19 19 19 19 19 19 19 18 18 18 18 18 19 18 18 18 17 17
22 22 22 22 21 21 20 20 20 20 20 20 20 20 19 19 19 19 19 19 19 19 19 19 19 19 19 19 19 19 19 19 19 18 18 18 19 19 19 18 18 18 17
22 22 21 21 21 21 20 20 20 20 20 20 20 19 19 19 19 19 19 19 19 19 19 19 19 19 19 19 19 19 19 19 19 19 18 19 19 19 19 18 18 18 18
23 22 21 20 20 20 20 20 20 20 20 20 19 19 19 19 19 19 19 19 19 19 19 19 19 19 19 19 19 19 19 19 19 19 19 19 19 19 19 19 18 18 18
23 22 22 21 20 20 20 20 20 19 19 19 19 19 19 19 18 18 18 18 18 18 19 19 19 19 19 19 19 19 19 19 19 19 19 19 19 19 19 19 18 18 18
23 22 21 21 20 20 20 20 19 19 19 19 19 19 19 18 18 18 18 18 18 18 18 18 18 18 18 18 18 18 18 18 19 19 19 19 18 19 19 19 19 18 18
22 22 21 21 20 20 20 20 19 19 19 19 19 19 18 18 18 19 18 18 18 18 18 18 18 18 18 18 18 18 18 18 18 18 18 18 18 18 18 19 19 18 18
21 21 21 21 20 20 20 20 19 19 19 19 19 18 18 18 18 18 18 18 18 18 18 18 17 18 18 18 18 18 18 18 18 18 18 18 18 18 18 18 18 18 18
21 21 21 20 20 20 20 20 19 19 19 19 19 18 18 18 18 18 18 18 18 17 17 17 18 17 17 17 18 18 18 18 18 18 18 18 17 18 18 18 18 18 18
21 20 20 20 19 19 19 19 19 19 19 18 18 18 18 18 17 17 17 17 17 17 17 17 17 17 17 17 17 17 17 17 17 18 18 18 17 17 18 18 18 18 18
20 20 20 19 19 19 19 19 19 19 18 18 18 18 17 17 17 17 17 17 17 17 17 17 17 17 17 17 17 17 17 17 17 17 17 17 17 17 17 18 18 18 18
20 19 19 19 19 18 18 18 18 18 18 18 18 18 17 17 17 17 17 17 17 16 16 16 16 16 16 16 16 16 17 17 17 17 17 17 17 17 17 17 18 18 18
19 19 19 19 18 18 18 18 18 18 18 18 18 17 17 17 16 16 16 16 16 16 16 16 16 16 16 16 16 16 17 17 17 17 17 17 17 17 17 17 17 17 17
19 19 19 18 18 18 18 18 18 18 18 18 17 17 17 16 16 16 16 16 16 16 15 15 15 15 15 15 15 16 16 17 17 18 18 17 17 17 17 17 17 17 17
19 19 19 18 18 18 18 18 18 18 18 17 17 17 17 16 16 16 15 15 15 15 15 15 15 15 15 15 15 15 16 17 17 18 18 18 18 17 17 17 17 17 17
19 19 19 18 18 18 18 17 17 17 17 17 17 17 16 16 15 15 15 15 14 14 14 14 15 15 14 15 15 15 15 16 17 17 17 17 17 17 17 17 17 17 17
20 19 19 18 18 18 17 17 17 17 16 16 16 16 16 16 15 15 14 14 14 14 14 14 14 14 14 14 14 15 15 15 15 16 16 17 17 17 17 17 17 17 17
20 19 19 18 18 17 17 17 16 16 16 16 16 16 15 15 15 15 14 14 14 13 13 13 13 13 13 13 13 14 14 15 15 15 15 16 16 17 17 17 17 17 17
20 20 19 18 18 17 16 16 16 15 15 15 15 15 15 15 15 15 14 14 13 13 13 13 13 13 13 13 13 13 13 14 14 15 15 15 16 16 17 17 16 16 16
Wind_Speed
20 19 20 17 16 15 14 13 13 13 13 13 13 13 14 14 14 14 13 13 12 12 12 11 11 10 10 11 11 11 11 11 11 13 14 14 13 12 11 11 15 17 17
23 21 20 18 16 14 13 13 13 13 13 13 13 13 13 13 13 12 12 11 11 11 11 11 10 10 10 10 10 10 9 9 9 10 12 13 12 11 9 8 14 16 16
22 20 19 18 16 15 13 13 13 13 13 13 13 13 12 12 12 11 10 10 9 10 9 10 10 10 9 9 9 8 7 6 5 6 9 12 12 12 13 17 19 17 15
21 19 18 18 16 15 14 13 13 13 13 12 12 12 12 12 11 10 10 9 8 8 8 9 9 9 8 8 7 6 4 2 1 2 5 9 13 13 14 16 16 15 14
20 19 19 18 17 15 14 13 12 12 13 12 12 11 11 11 10 9 9 8 7 7 7 7 7 8 7 6 5 3 1 1 3 6 2 13 15 13 13 14 14 14 13
20 20 19 18 16 15 13 12 12 12 12 12 11 11 10 10 9 8 8 7 7 6 6 6 6 6 6 5 4 2 1 4 7 5 6 15 14 13 13 13 13 13 12
20 19 19 18 16 15 13 12 12 11 11 11 11 10 9 9 8 7 7 6 6 6 6 6 5 5 5 4 2 1 3 6 9 6 7 15 15 15 13 12 12 12 12
22 20 19 18 16 15 13 12 11 11 10 10 9 9 9 8 7 7 6 6 5 5 5 5 5 4 4 4 3 2 4 8 8 5 10 16 18 16 13 12 12 12 12
22 19 17 16 15 14 13 12 11 10 9 9 8 8 7 7 7 7 7 7 6 5 5 5 5 5 4 5 4 4 6 8 11 9 8 15 19 17 14 13 12 12 12
19 18 16 16 15 14 13 12 11 10 9 9 8 7 7 7 8 8 9 9 8 7 6 6 5 5 6 7 7 7 8 9 11 11 6 16 22 19 16 14 13 13 12
15 15 15 15 13 13 13 14 13 11 10 9 9 8 7 7 8 9 9 10 10 8 7 7 7 6 7 9 11 10 9 10 12 8 7 20 23 21 18 15 14 14 13
12 12 12 12 9 8 9 13 10 10 11 9 8 8 7 5 4 4 8 10 10 9 8 8 8 8 9 8 10 11 9 12 12 7 10 24 22 21 20 18 16 15 15
10 10 13 11 6 5 5 7 4 5 8 6 6 7 5 3 1 0 4 6 7 8 7 7 8 7 7 6 4 8 10 10 8 5 11 24 22 21 20 19 18 17 17
8 9 11 10 6 5 4 2 3 3 4 2 5 5 3 1 1 1 0 2 4 4 4 4 5 6 5 5 4 6 9 8 7 4 10 20 22 21 21 20 19 19 19
8 9 10 9 7 5 4 2 2 2 2 2 2 3 2 1 1 0 0 1 3 4 4 3 3 3 3 4 5 6 6 8 8 7 6 16 19 20 20 20 20 20 21
8 8 9 9 7 5 3 1 1 2 2 1 2 2 1 1 1 1 1 2 3 4 2 3 2 2 2 2 4 5 6 8 9 8 7 11 17 19 20 21 21 21 22
8 8 8 9 7 5 3 1 1 1 2 1 1 3 3 3 1 1 2 2 2 3 2 3 3 2 4 4 5 6 6 7 8 8 10 10 12 18 20 21 22 23 23
10 9 6 6 7 5 3 1 1 2 1 1 2 4 3 1 0 1 2 0 1 3 3 2 3 3 3 3 4 5 5 5 8 9 11 12 12 13 18 23 23 24 24
10 9 7 7 6 4 3 1 1 1 1 1 2 3 3 2 2 1 1 1 2 2 2 4 2 2 3 4 5 6 6 7 7 9 8 11 14 15 15 20 26 27 27
9 8 7 6 6 3 2 1 0 1 1 1 2 3 3 2 2 2 2 1 2 2 2 2 4 4 4 5 8 7 5 6 6 7 8 8 11 15 16 16 19 24 28
9 8 6 6 4 2 2 1 1 1 1 0 1 4 3 1 2 1 2 2 3 3 3 4 3 4 5 4 5 6 6 8 8 7 7 6 7 9 11 12 13 16 18
8 7 6 6 4 2 3 1 0 1 2 1 1 2 1 0 1 3 2 3 4 4 5 4 3 3 5 4 4 4 5 5 5 6 5 6 6 3 4 8 10 12 14
8 7 6 6 5 3 2 1 2 1 2 2 1 0 1 1 2 3 2 3 4 5 5 4 4 4 4 5 4 4 4 4 4 4 4 3 4 4 4 3 7 11 14
8 7 7 6 4 3 2 2 4 3 3 3 2 2 2 2 3 3 3 3 3 4 6 7 4 4 4 5 5 5 5 4 3 4 5 4 3 4 5 5 4 6 11
8 8 8 6 4 2 1 2 3 4 4 4 5 5 4 4 4 4 3 1 2 3 5 6 6 5 5 5 5 5 5 4 5 5 6 5 4 4 4 5 4 3 6
7 7 7 7 5 2 0 1 2 4 5 6 6 5 4 4 3 3 2 1 2 3 5 5 6 7 6 6 5 5 6 5 5 5 5 6 5 5 4 3 4 3 4
Wind_Direction
123 127 126 125 125 127 131 132 130 126 123 119 116 113 110 107 105 102 98 96 93 89 86 84 80 77 74 71 70 74 76 78 82 87 90 90 91 92 96 108 108 101 104
122 126 124 124 124 126 129 132 134 131 128 125 122 120 117 114 111 107 104 101 96 91 87 84 82 80 79 78 79 80 81 84 92 101 107 101 93 86 84 101 104 109 110
120 126 125 123 123 124 126 130 134 135 135 131 127 125 122 119 116 113 110 105 101 96 91 87 85 83 82 82 83 84 86 92 106 126 139 118 104 88 89 99 106 111 111
124 132 127 125 124 124 124 127 133 136 138 135 131 129 127 125 123 120 116 111 106 101 97 93 90 90 87 85 85 86 85 90 120 191 196 132 115 101 100 105 110 113 114
120 121 124 127 125 124 124 125 129 133 134 136 134 133 132 131 130 128 125 121 115 108 104 100 99 99 97 94 91 87 63 340 301 267 163 109 109 116 112 114 116 118 119
122 123 125 126 125 124 124 124 126 129 131 133 134 134 135 135 133 133 132 131 127 122 119 113 111 109 110 108 105 93 319 309 294 268 144 120 121 127 123 124 125 125 125
125 123 127 126 124 124 125 126 127 128 130 133 136 138 139 141 142 141 140 141 139 134 130 129 125 126 130 131 138 203 291 298 283 285 127 120 130 135 134 134 134 133 132
126 125 128 128 128 128 129 129 131 134 136 139 142 145 147 151 154 156 157 155 150 146 146 147 146 151 154 165 186 241 281 292 291 290 129 127 140 142 143 144 145 144 143
124 129 137 138 135 135 136 137 138 141 145 148 153 158 163 171 175 176 176 173 170 168 169 172 174 179 185 193 208 236 266 284 293 279 143 138 148 149 151 154 155 154 154
129 136 142 145 146 152 152 151 151 155 159 162 167 174 183 196 198 198 197 193 187 185 188 194 198 202 207 212 217 229 249 272 270 267 156 150 155 155 157 163 165 164 164
126 135 144 141 151 160 160 158 164 171 175 177 183 191 201 220 214 207 211 188 189 193 198 206 213 218 221 224 222 224 235 251 256 255 157 155 160 160 162 169 174 175 174
126 129 124 129 136 149 151 150 174 179 173 192 183 184 205 232 251 205 176 182 195 203 208 212 218 226 229 235 219 216 232 244 260 260 153 158 164 164 167 173 180 184 185
126 119 118 116 124 128 119 150 152 154 151 184 174 174 198 233 268 271 154 174 198 215 223 216 216 226 229 234 208 197 234 255 257 259 162 165 171 172 171 177 185 191 192
121 112 116 120 113 84 80 104 124 121 142 160 151 173 163 157 248 273 83 173 207 217 227 232 223 226 238 250 236 223 238 253 265 265 173 175 178 180 179 183 190 196 198
112 107 101 106 101 93 72 16 73 75 92 104 104 132 127 172 232 301 307 279 260 236 214 223 231 241 245 249 252 249 258 262 269 275 206 189 191 190 188 190 196 202 204
124 117 110 109 106 101 100 74 29 57 73 63 105 119 91 64 56 345 271 246 258 252 215 216 222 230 234 248 263 262 258 264 265 260 246 210 203 202 200 199 203 208 210
121 108 108 110 106 103 94 65 88 64 85 90 124 103 73 46 38 301 274 260 282 282 253 240 248 244 242 239 242 251 252 253 257 254 248 236 220 213 213 211 210 212 215
101 96 90 103 112 111 103 68 41 22 49 67 62 88 83 55 347 283 279 284 303 287 263 242 233 244 253 255 251 251 246 241 245 244 242 237 233 231 223 220 217 217 219
97 101 98 88 97 101 107 106 118 115 47 41 73 87 85 41 334 303 309 346 287 293 293 299 317 301 288 283 274 253 239 239 237 243 233 231 230 230 228 223 221 220 221
102 106 108 100 94 105 106 101 93 135 183 145 126 118 91 31 12 349 307 10 323 289 298 309 300 284 276 270 276 281 265 252 242 239 235 231 228 227 227 228 219 222 222
119 121 121 112 109 103 81 38 27 36 338 263 145 115 108 33 13 324 322 333 306 301 304 289 287 295 281 263 267 274 265 250 241 234 229 231 232 230 227 224 214 212 218
133 131 133 128 124 120 98 72 166 348 308 309 48 108 140 80 354 303 33 335 326 325 299 284 282 282 293 292 280 287 288 276 262 250 224 220 225 224 233 236 224 215 218
139 141 127 113 105 76 62 332 4 17 286 313 348 66 73 22 339 318 322 314 327 315 311 334 304 290 288 295 280 269 283 287 315 297 277 248 220 217 229 235 230 222 221
144 137 123 122 113 87 37 15 354 332 330 325 341 35 25 330 298 292 292 301 321 321 319 311 336 338 307 293 290 273 260 274 291 304 305 292 258 234 230 240 249 225 222
151 145 137 132 123 107 28 9 337 335 339 346 354 345 338 299 270 260 254 264 305 299 305 318 318 309 303 295 298 302 294 282 253 252 278 291 292 266 238 229 236 231 230
155 151 143 136 132 136 281 344 342 342 340 330 320 311 308 303 302 303 300 27 311 305 312 310 302 293 280 280 285 289 291 284 271 258 263 273 276 274 265 242 229 225 229
Height
1509 1512 1516 1519 1522 1525 1528 1530 1533 1535 1537 1539 1540 1542 1543 1544 1546 1547 1548 1549 1550 1551 1552 1553 1554 1555 1555 1556 1557 1557 1558 1558 1559 1559 1560 1561 1561 1562 1563 1564 1566 1566 1567
1507 1512 1516 1520 1523 1526 1529 1532 1534 1536 1538 1540 1542 1544 1545 1546 1547 1548 1549 1551 1552 1553 1554 1554 1555 1556 1557 1557 1558 1559 1559 1560 1561 1561 1562 1563 1564 1565 1566 1567 1568 1569 1570
1508 1513 1517 1521 1524 1527 1530 1533 1535 1538 1540 1542 1543 1545 1546 1547 1549 1550 1551 1552 1553 1554 1555 1556 1556 1557 1558 1559 1559 1560 1561 1562 1563 1563 1564 1565 1566 1567 1568 1569 1571 1571 1572
1509 1514 1518 1522 1525 1529 1531 1534 1537 1539 1541 1543 1545 1546 1547 1549 1550 1551 1552 1553 1554 1555 1556 1557 1558 1558 1559 1560 1561 1562 1563 1564 1565 1565 1567 1568 1569 1569 1570 1571 1572 1574 1575
1511 1515 1519 1523 1526 1529 1532 1535 1538 1540 1542 1544 1545 1547 1548 1549 1551 1552 1553 1554 1555 1556 1557 1558 1558 1559 1560 1561 1562 1563 1565 1566 1566 1567 1569 1570 1570 1571 1572 1573 1574 1575 1577
1513 1516 1520 1524 1527 1530 1533 1536 1538 1541 1543 1544 1546 1547 1549 1550 1551 1552 1554 1555 1555 1556 1558 1559 1559 1560 1561 1562 1563 1565 1566 1567 1568 1569 1571 1571 1572 1573 1573 1574 1576 1577 1578
1514 1517 1521 1525 1528 1531 1534 1536 1539 1541 1543 1545 1546 1548 1549 1550 1551 1553 1554 1555 1556 1557 1558 1559 1560 1561 1562 1563 1564 1565 1567 1568 1569 1571 1572 1572 1573 1574 1574 1575 1577 1578 1580
1514 1517 1522 1525 1529 1532 1534 1537 1539 1541 1543 1545 1546 1548 1549 1550 1551 1553 1554 1555 1556 1557 1558 1559 1560 1561 1562 1563 1564 1566 1567 1568 1569 1571 1572 1572 1573 1574 1575 1576 1577 1579 1581
1515 1518 1522 1526 1529 1532 1535 1537 1540 1542 1543 1545 1546 1548 1549 1550 1551 1553 1554 1555 1556 1557 1558 1559 1560 1560 1562 1563 1564 1565 1567 1568 1569 1571 1572 1572 1573 1574 1575 1577 1578 1579 1581
1517 1519 1523 1527 1530 1533 1535 1538 1540 1542 1543 1545 1546 1548 1549 1550 1551 1552 1553 1554 1555 1556 1557 1558 1559 1560 1561 1562 1563 1565 1566 1567 1569 1570 1571 1570 1572 1574 1575 1576 1578 1579 1581
1518 1521 1525 1528 1531 1534 1536 1538 1540 1542 1543 1544 1546 1547 1548 1549 1550 1552 1553 1554 1555 1555 1556 1557 1558 1559 1560 1561 1562 1563 1565 1566 1567 1568 1569 1569 1571 1572 1574 1575 1577 1579 1580
1519 1522 1526 1529 1532 1536 1538 1539 1540 1541 1542 1544 1545 1546 1548 1549 1550 1551 1552 1553 1553 1554 1555 1556 1557 1558 1559 1560 1560 1561 1563 1564 1565 1567 1567 1567 1569 1570 1572 1574 1576 1578 1579
1520 1523 1526 1529 1533 1536 1538 1539 1541 1542 1542 1543 1544 1546 1547 1548 1549 1550 1550 1551 1552 1552 1553 1554 1555 1555 1557 1558 1559 1559 1560 1562 1563 1564 1564 1565 1567 1569 1570 1572 1574 1576 1578
1521 1525 1527 1529 1532 1535 1537 1539 1541 1541 1542 1543 1544 1545 1545 1546 1547 1548 1548 1549 1550 1551 1551 1552 1553 1553 1555 1556 1556 1557 1557 1559 1561 1562 1561 1562 1564 1566 1568 1570 1572 1574 1576
1521 1524 1526 1529 1531 1533 1535 1538 1539 1540 1541 1543 1543 1544 1544 1545 1546 1546 1546 1547 1548 1549 1549 1550 1550 1551 1552 1553 1553 1554 1555 1557 1558 1559 1559 1559 1561 1562 1564 1566 1569 1571 1573
1521 1524 1526 1528 1530 1532 1535 1537 1538 1539 1540 1541 1541 1542 1542 1543 1544 1544 1545 1546 1546 1547 1548 1548 1548 1548 1549 1549 1550 1551 1552 1553 1554 1555 1556 1556 1557 1559 1561 1562 1564 1567 1569
1521 1523 1526 1528 1530 1532 1534 1535 1538 1538 1539 1539 1541 1541 1542 1542 1542 1543 1544 1544 1544 1545 1545 1545 1545 1546 1546 1547 1548 1548 1549 1549 1550 1550 1551 1552 1553 1554 1556 1557 1560 1562 1565
1520 1523 1526 1529 1530 1532 1533 1535 1536 1537 1538 1539 1540 1540 1540 1541 1541 1542 1542 1542 1542 1542 1543 1543 1543 1543 1543 1543 1544 1544 1545 1545 1545 1546 1546 1547 1548 1549 1550 1552 1555 1557 1559
1520 1523 1527 1529 1530 1532 1533 1535 1535 1537 1537 1538 1539 1539 1539 1540 1540 1541 1540 1540 1540 1540 1540 1540 1540 1540 1540 1540 1540 1540 1541 1541 1541 1541 1542 1542 1543 1544 1545 1547 1549 1551 1554
1521 1524 1527 1529 1530 1532 1534 1535 1536 1536 1537 1537 1538 1538 1538 1538 1539 1539 1539 1538 1538 1538 1537 1537 1537 1536 1536 1537 1537 1537 1537 1536 1537 1537 1537 1538 1539 1540 1541 1542 1543 1545 1547
1523 1525 1527 1529 1531 1532 1533 1534 1535 1536 1536 1537 1537 1536 1537 1537 1537 1537 1537 1536 1536 1535 1535 1534 1534 1533 1533 1534 1534 1533 1533 1533 1532 1533 1533 1534 1535 1536 1537 1538 1538 1540 1541
1524 1526 1528 1529 1531 1532 1533 1534 1534 1535 1535 1536 1536 1535 1535 1535 1535 1535 1534 1533 1533 1533 1532 1532 1531 1530 1530 1531 1531 1531 1530 1530 1528 1529 1529 1529 1530 1532 1533 1533 1534 1535 1536
1525 1526 1528 1529 1531 1531 1532 1533 1534 1534 1534 1535 1535 1534 1533 1533 1532 1532 1531 1531 1530 1530 1530 1529 1529 1528 1528 1528 1528 1529 1528 1526 1526 1525 1525 1526 1526 1527 1528 1529 1530 1530 1531
1525 1526 1528 1529 1530 1530 1531 1531 1532 1532 1533 1533 1533 1532 1531 1530 1530 1530 1529 1528 1527 1527 1526 1526 1527 1525 1525 1525 1525 1526 1526 1525 1525 1523 1523 1523 1523 1523 1524 1525 1525 1526 1526
1524 1526 1527 1527 1529 1529 1530 1530 1530 1530 1530 1530 1529 1529 1528 1528 1528 1527 1526 1525 1524 1523 1523 1523 1522 1522 1522 1522 1522 1522 1522 1522 1522 1522 1520 1520 1520 1520 1520 1520 1521 1521 1522
1524 1525 1526 1526 1527 1528 1528 1528 1528 1528 1528 1527 1527 1526 1526 1526 1525 1525 1524 1522 1521 1520 1520 1519 1518 1518 1518 1518 1518 1518 1518 1518 1518 1518 1518 1517 1517 1517 1517 1516 1516 1517 1517